DIASE EDDG-EDLW

Flight info

Callsign DIASE
Flight time N/A
Altitude
Route EDDG/07
Aircraft PA28

Departure

Time 2026-05-08 19:08
Airport Münster Osnabrück Airport (EDDG)

Arrival

Time N/A
Airport Dortmund Airport (EDLW)
Time Latitude Longitude Altitude Speed Heading
2026-05-08 19:07 52.13491 7.68625 161 ft 66 kts 76°
2026-05-08 19:07 52.13653 7.69427 441 ft 83 kts 71°
2026-05-08 19:07 52.13681 7.70509 529 ft 116 kts 115°
2026-05-08 19:08 52.13094 7.71537 714 ft 126 kts 133°
2026-05-08 19:08 52.12704 7.72231 862 ft 126 kts 124°
2026-05-08 19:08 52.12171 7.73908 976 ft 121 kts 111°
2026-05-08 19:08 52.11896 7.75153 1053 ft 114 kts 105°
2026-05-08 19:09 52.11715 7.76377 1171 ft 106 kts 99°
2026-05-08 19:09 52.11657 7.77195 1138 ft 114 kts 96°
2026-05-08 19:09 52.11648 7.78553 1039 ft 115 kts 88°
2026-05-08 19:09 52.11662 7.79665 1109 ft 104 kts 90°
2026-05-08 19:10 52.11598 7.80698 1445 ft 82 kts 99°
2026-05-08 19:10 52.11508 7.81634 1574 ft 88 kts 104°
2026-05-08 19:10 52.11340 7.82639 1652 ft 98 kts 107°
2026-05-08 19:10 52.11119 7.83731 1725 ft 101 kts 109°
2026-05-08 19:11 52.10908 7.84899 1540 ft 122 kts 101°
2026-05-08 19:11 52.10812 7.86309 1423 ft 122 kts 97°
2026-05-08 19:11 52.10730 7.87625 1463 ft 115 kts 98°
2026-05-08 19:11 52.10640 7.88902 1505 ft 110 kts 98°
2026-05-08 19:12 52.10480 7.90098 1540 ft 108 kts 101°
2026-05-08 19:12 52.10160 7.91161 1530 ft 113 kts 146°
2026-05-08 19:12 52.09366 7.91263 1601 ft 112 kts 179°
2026-05-08 19:12 52.08638 7.91179 1851 ft 98 kts 178°
2026-05-08 19:13 52.08007 7.90949 2086 ft 91 kts 196°
2026-05-08 19:13 52.07586 7.90227 2298 ft 92 kts 241°
2026-05-08 19:13 52.07161 7.89664 2518 ft 76 kts 195°
2026-05-08 19:13 52.06715 7.89249 2750 ft 72 kts 205°
2026-05-08 19:14 52.06278 7.88797 3009 ft 81 kts 204°
2026-05-08 19:14 52.05762 7.88309 3286 ft 91 kts 203°
2026-05-08 19:14 52.05178 7.87788 3564 ft 101 kts 204°
2026-05-08 19:14 52.04530 7.87235 3842 ft 109 kts 204°
2026-05-08 19:15 52.03831 7.86657 4118 ft 116 kts 204°
2026-05-08 19:15 52.03094 7.86066 4405 ft 119 kts 204°
2026-05-08 19:15 52.02343 7.85534 4734 ft 116 kts 201°
2026-05-08 19:15 52.01585 7.85025 4976 ft 122 kts 204°
2026-05-08 19:16 52.00761 7.84439 5081 ft 134 kts 204°
2026-05-08 19:16 51.99913 7.83807 5404 ft 105 kts 216°
2026-05-08 19:16 51.99600 7.83050 6057 ft 75 kts 260°
2026-05-08 19:16 51.99307 7.82440 5481 ft 71 kts 97°
2026-05-08 19:17 51.99333 7.81916 4879 ft 97 kts 263°
2026-05-08 19:17 51.99168 7.80782 5092 ft 111 kts 250°
2026-05-08 19:17 51.98772 7.79554 5117 ft 133 kts 236°
2026-05-08 19:17 51.98134 7.78362 5114 ft 146 kts 224°
2026-05-08 19:18 51.97303 7.77365 5116 ft 151 kts 211°
2026-05-08 19:18 51.96335 7.76657 5115 ft 153 kts 199°
2026-05-08 19:18 51.95289 7.76289 5113 ft 154 kts 186°
2026-05-08 19:18 51.94214 7.76282 5113 ft 155 kts 174°
2026-05-08 19:19 51.93164 7.76635 5112 ft 155 kts 162°
2026-05-08 19:19 51.92182 7.77333 5110 ft 155 kts 150°
2026-05-08 19:19 51.91306 7.78349 5110 ft 155 kts 138°
2026-05-08 19:19 51.90578 7.79637 5107 ft 155 kts 126°
2026-05-08 19:20 51.90345 7.80626 4355 ft 121 kts 73°
2026-05-08 19:20 51.90732 7.81598 2870 ft 161 kts 75°